QPF
0.01 0.01 0.03 0.05 0.06 0.07 0.09 0.09 0.11 0.12 0.12 0.12 0.15 0.16 0.17 0.14 0.10 0.09 0.08 0.09 0.09 0.08 0.06 0.04 0.02 0.02 0.02 0.02 0.03 0.02 0.02 0.03 0.02 0.03 0.03 0.03 0.04 0.03 0.03 0.02 0.02 0.03 0.05
0.01 0.01 0.02 0.04 0.05 0.06 0.07 0.09 0.12 0.13 0.13 0.13 0.14 0.17 0.17 0.14 0.11 0.12 0.09 0.09 0.08 0.08 0.07 0.05 0.03 0.02 0.02 0.02 0.02 0.02 0.02 0.03 0.03 0.03 0.04 0.03 0.04 0.03 0.02 0.02 0.02 0.02 0.04
0.00 0.01 0.01 0.02 0.03 0.05 0.08 0.12 0.15 0.17 0.16 0.18 0.17 0.15 0.17 0.15 0.14 0.14 0.12 0.11 0.07 0.06 0.07 0.06 0.04 0.04 0.03 0.02 0.02 0.02 0.02 0.02 0.02 0.02 0.03 0.04 0.03 0.02 0.01 0.02 0.03 0.02 0.02
0.00 0.00 0.00 0.01 0.03 0.05 0.08 0.12 0.15 0.17 0.19 0.21 0.21 0.18 0.15 0.15 0.15 0.16 0.15 0.15 0.12 0.06 0.05 0.06 0.05 0.05 0.05 0.04 0.02 0.02 0.02 0.01 0.02 0.02 0.02 0.02 0.02 0.02 0.02 0.01 0.03 0.03 0.02
0.00 0.00 0.00 0.00 0.01 0.04 0.07 0.08 0.10 0.12 0.15 0.16 0.15 0.13 0.12 0.14 0.17 0.17 0.19 0.19 0.18 0.10 0.06 0.04 0.05 0.04 0.06 0.06 0.05 0.03 0.02 0.01 0.01 0.02 0.02 0.02 0.02 0.02 0.02 0.02 0.02 0.02 0.02
0.00 0.00 0.00 0.00 0.01 0.02 0.04 0.05 0.06 0.07 0.08 0.12 0.13 0.12 0.13 0.14 0.19 0.17 0.17 0.18 0.21 0.18 0.10 0.06 0.04 0.03 0.04 0.05 0.06 0.06 0.03 0.01 0.01 0.02 0.02 0.02 0.03 0.02 0.03 0.02 0.02 0.02 0.01
0.01 0.00 0.00 0.00 0.00 0.01 0.02 0.04 0.05 0.06 0.07 0.09 0.11 0.11 0.12 0.13 0.17 0.19 0.16 0.15 0.19 0.21 0.19 0.13 0.08 0.04 0.02 0.03 0.04 0.04 0.04 0.02 0.02 0.02 0.02 0.03 0.02 0.02 0.03 0.02 0.01 0.02 0.01
0.01 0.01 0.00 0.00 0.01 0.01 0.01 0.03 0.03 0.04 0.06 0.08 0.09 0.10 0.10 0.11 0.10 0.17 0.18 0.15 0.16 0.18 0.24 0.20 0.14 0.09 0.07 0.04 0.03 0.04 0.04 0.03 0.02 0.02 0.03 0.04 0.03 0.02 0.02 0.02 0.01 0.01 0.01
0.01 0.01 0.01 0.01 0.01 0.01 0.01 0.02 0.02 0.04 0.05 0.07 0.09 0.10 0.07 0.06 0.08 0.11 0.17 0.18 0.19 0.18 0.21 0.23 0.22 0.18 0.16 0.13 0.07 0.05 0.04 0.04 0.04 0.03 0.05 0.04 0.02 0.02 0.02 0.01 0.01 0.01 0.01
0.00 0.01 0.01 0.02 0.01 0.01 0.02 0.04 0.04 0.05 0.06 0.07 0.09 0.09 0.08 0.05 0.06 0.06 0.11 0.15 0.18 0.20 0.21 0.23 0.24 0.20 0.18 0.17 0.14 0.11 0.07 0.04 0.04 0.04 0.06 0.06 0.03 0.02 0.02 0.02 0.01 0.01 0.01
0.02 0.01 0.02 0.02 0.02 0.01 0.01 0.03 0.04 0.05 0.06 0.06 0.07 0.09 0.10 0.07 0.06 0.05 0.06 0.09 0.12 0.16 0.20 0.23 0.26 0.24 0.18 0.16 0.13 0.11 0.08 0.05 0.04 0.05 0.06 0.07 0.05 0.04 0.02 0.02 0.02 0.02 0.02
0.02 0.03 0.03 0.02 0.02 0.01 0.01 0.03 0.04 0.04 0.04 0.04 0.05 0.07 0.10 0.11 0.07 0.06 0.05 0.07 0.09 0.13 0.17 0.19 0.23 0.23 0.22 0.17 0.14 0.12 0.10 0.06 0.04 0.04 0.05 0.07 0.07 0.05 0.03 0.03 0.03 0.02 0.02
0.01 0.03 0.03 0.03 0.04 0.04 0.03 0.02 0.02 0.02 0.03 0.03 0.04 0.03 0.03 0.06 0.08 0.07 0.05 0.05 0.08 0.14 0.19 0.18 0.18 0.22 0.23 0.20 0.17 0.17 0.13 0.08 0.05 0.03 0.04 0.05 0.07 0.07 0.06 0.06 0.05 0.04 0.04
0.02 0.03 0.02 0.03 0.06 0.05 0.03 0.02 0.01 0.02 0.02 0.02 0.02 0.02 0.02 0.02 0.05 0.07 0.05 0.05 0.07 0.13 0.18 0.18 0.17 0.17 0.19 0.20 0.17 0.19 0.15 0.13 0.08 0.05 0.04 0.04 0.04 0.05 0.08 0.08 0.07 0.08 0.07
0.02 0.02 0.02 0.03 0.06 0.05 0.05 0.04 0.02 0.02 0.03 0.02 0.03 0.03 0.01 0.02 0.05 0.06 0.05 0.05 0.05 0.09 0.14 0.15 0.17 0.17 0.17 0.18 0.19 0.18 0.15 0.13 0.11 0.07 0.05 0.03 0.04 0.04 0.04 0.07 0.08 0.09 0.09
0.02 0.02 0.02 0.04 0.05 0.05 0.04 0.03 0.02 0.03 0.03 0.02 0.03 0.04 0.02 0.02 0.04 0.05 0.04 0.05 0.06 0.06 0.08 0.09 0.14 0.16 0.19 0.21 0.22 0.20 0.17 0.16 0.13 0.10 0.06 0.04 0.03 0.04 0.03 0.03 0.04 0.05 0.05
0.02 0.03 0.02 0.04 0.06 0.06 0.05 0.03 0.02 0.02 0.03 0.03 0.03 0.04 0.04 0.05 0.05 0.05 0.05 0.04 0.05 0.06 0.05 0.06 0.08 0.11 0.18 0.22 0.25 0.24 0.21 0.18 0.14 0.11 0.08 0.06 0.04 0.04 0.03 0.03 0.03 0.03 0.02
0.01 0.02 0.03 0.04 0.05 0.05 0.04 0.03 0.03 0.03 0.03 0.03 0.03 0.03 0.03 0.04 0.05 0.05 0.04 0.03 0.04 0.06 0.07 0.05 0.05 0.07 0.11 0.15 0.21 0.25 0.23 0.17 0.13 0.12 0.10 0.08 0.05 0.04 0.03 0.03 0.03 0.02 0.02
0.00 0.01 0.02 0.02 0.04 0.04 0.04 0.04 0.05 0.05 0.05 0.04 0.04 0.03 0.03 0.04 0.06 0.05 0.04 0.05 0.04 0.06 0.06 0.06 0.07 0.07 0.08 0.12 0.15 0.17 0.21 0.22 0.16 0.12 0.11 0.11 0.09 0.07 0.05 0.04 0.03 0.02 0.02
0.01 0.01 0.02 0.02 0.02 0.02 0.02 0.03 0.05 0.06 0.05 0.05 0.04 0.03 0.03 0.04 0.05 0.06 0.06 0.06 0.06 0.07 0.07 0.07 0.07 0.09 0.09 0.10 0.13 0.12 0.13 0.16 0.17 0.15 0.12 0.10 0.10 0.10 0.08 0.06 0.04 0.03 0.02
0.00 0.01 0.02 0.02 0.01 0.01 0.02 0.03 0.03 0.04 0.04 0.04 0.03 0.03 0.03 0.03 0.04 0.06 0.07 0.07 0.07 0.07 0.08 0.08 0.10 0.11 0.10 0.09 0.07 0.06 0.07 0.11 0.16 0.16 0.13 0.09 0.08 0.09 0.09 0.08 0.07 0.05 0.04
0.00 0.00 0.01 0.01 0.01 0.01 0.01 0.02 0.03 0.03 0.02 0.03 0.03 0.02 0.02 0.02 0.02 0.04 0.05 0.05 0.05 0.06 0.06 0.06 0.07 0.08 0.08 0.07 0.08 0.06 0.07 0.07 0.09 0.12 0.14 0.13 0.11 0.09 0.08 0.08 0.08 0.07 0.06
0.00 0.00 0.00 0.01 0.01 0.01 0.02 0.03 0.03 0.03 0.02 0.03 0.04 0.02 0.01 0.02 0.01 0.02 0.05 0.06 0.06 0.06 0.05 0.05 0.05 0.04 0.05 0.05 0.08 0.07 0.07 0.07 0.06 0.06 0.10 0.13 0.12 0.10 0.08 0.08 0.09 0.09 0.09
0.00 0.00 0.00 0.00 0.01 0.02 0.02 0.03 0.03 0.03 0.03 0.03 0.03 0.04 0.05 0.02 0.02 0.03 0.04 0.04 0.04 0.03 0.03 0.03 0.04 0.05 0.05 0.06 0.08 0.09 0.12 0.11 0.10 0.09 0.08 0.09 0.10 0.09 0.08 0.08 0.08 0.08 0.08
0.00 0.00 0.00 0.00 0.01 0.02 0.03 0.02 0.02 0.02 0.01 0.01 0.02 0.04 0.04 0.03 0.03 0.04 0.04 0.04 0.03 0.02 0.02 0.03 0.03 0.04 0.05 0.06 0.08 0.09 0.10 0.11 0.11 0.09 0.08 0.07 0.06 0.08 0.10 0.09 0.08 0.07 0.05
0.00 0.00 0.00 0.00 0.00 0.01 0.02 0.02 0.02 0.01 0.01 0.01 0.01 0.02 0.02 0.02 0.03 0.03 0.03 0.04 0.03 0.02 0.02 0.03 0.04 0.04 0.04 0.05 0.07 0.08 0.09 0.08 0.08 0.08 0.07 0.06 0.07 0.07 0.08 0.09 0.08 0.07 0.06
MSLP
1012.82 1012.62 1012.33 1012.01 1011.69 1011.42 1011.25 1011.19 1011.24 1011.39 1011.59 1011.81 1012.01 1012.16 1012.23 1012.25 1012.21 1012.15 1012.09 1012.05 1012.06 1012.12 1012.23 1012.40 1012.61 1012.85 1013.11 1013.36 1013.61 1013.83 1014.03 1014.21 1014.39 1014.57 1014.77 1015.00 1015.25 1015.53 1015.80 1016.07 1016.31 1016.52 1016.69
1012.84 1012.61 1012.32 1012.00 1011.69 1011.43 1011.26 1011.19 1011.23 1011.35 1011.53 1011.73 1011.91 1012.04 1012.11 1012.12 1012.07 1011.99 1011.91 1011.85 1011.85 1011.90 1012.03 1012.22 1012.47 1012.76 1013.05 1013.35 1013.61 1013.85 1014.06 1014.24 1014.42 1014.61 1014.83 1015.08 1015.37 1015.68 1016.00 1016.29 1016.56 1016.77 1016.95
1012.87 1012.64 1012.36 1012.07 1011.79 1011.56 1011.41 1011.35 1011.37 1011.47 1011.62 1011.79 1011.93 1012.04 1012.08 1012.06 1011.98 1011.87 1011.76 1011.67 1011.64 1011.68 1011.80 1012.00 1012.27 1012.59 1012.92 1013.24 1013.53 1013.78 1013.99 1014.18 1014.36 1014.56 1014.80 1015.08 1015.40 1015.75 1016.10 1016.42 1016.71 1016.95 1017.14
1012.91 1012.69 1012.45 1012.20 1011.97 1011.79 1011.67 1011.61 1011.63 1011.70 1011.81 1011.93 1012.03 1012.10 1012.10 1012.05 1011.94 1011.79 1011.64 1011.51 1011.44 1011.45 1011.55 1011.75 1012.02 1012.35 1012.70 1013.04 1013.35 1013.61 1013.83 1014.03 1014.22 1014.44 1014.69 1014.99 1015.34 1015.71 1016.09 1016.45 1016.76 1017.02 1017.23
1012.94 1012.73 1012.53 1012.34 1012.17 1012.04 1011.95 1011.91 1011.91 1011.96 1012.02 1012.10 1012.16 1012.18 1012.15 1012.07 1011.93 1011.75 1011.56 1011.40 1011.28 1011.25 1011.32 1011.49 1011.76 1012.08 1012.43 1012.78 1013.10 1013.38 1013.62 1013.83 1014.03 1014.26 1014.53 1014.85 1015.21 1015.61 1016.00 1016.38 1016.71 1016.99 1017.21
1012.96 1012.75 1012.58 1012.44 1012.33 1012.24 1012.19 1012.15 1012.14 1012.15 1012.18 1012.21 1012.23 1012.23 1012.18 1012.08 1011.93 1011.74 1011.53 1011.33 1011.19 1011.12 1011.15 1011.28 1011.52 1011.82 1012.16 1012.51 1012.84 1013.13 1013.39 1013.61 1013.84 1014.08 1014.37 1014.70 1015.07 1015.47 1015.87 1016.25 1016.59 1016.88 1017.12
1012.95 1012.73 1012.58 1012.47 1012.39 1012.34 1012.30 1012.26 1012.24 1012.22 1012.21 1012.21 1012.21 1012.20 1012.15 1012.06 1011.93 1011.75 1011.54 1011.34 1011.17 1011.07 1011.06 1011.15 1011.34 1011.61 1011.93 1012.27 1012.60 1012.90 1013.18 1013.43 1013.68 1013.94 1014.24 1014.57 1014.94 1015.33 1015.72 1016.10 1016.43 1016.73 1016.98
1012.91 1012.68 1012.52 1012.41 1012.35 1012.31 1012.26 1012.22 1012.16 1012.12 1012.08 1012.07 1012.06 1012.06 1012.04 1011.99 1011.90 1011.76 1011.58 1011.39 1011.22 1011.10 1011.05 1011.10 1011.25 1011.48 1011.76 1012.08 1012.40 1012.71 1013.00 1013.28 1013.55 1013.83 1014.14 1014.48 1014.84 1015.21 1015.58 1015.94 1016.26 1016.55 1016.81
1012.88 1012.60 1012.42 1012.30 1012.22 1012.16 1012.10 1012.02 1011.94 1011.86 1011.81 1011.78 1011.78 1011.81 1011.84 1011.85 1011.82 1011.74 1011.62 1011.46 1011.31 1011.18 1011.11 1011.12 1011.21 1011.39 1011.63 1011.92 1012.22 1012.53 1012.83 1013.13 1013.43 1013.73 1014.05 1014.39 1014.74 1015.09 1015.44 1015.77 1016.08 1016.36 1016.62
1012.88 1012.56 1012.33 1012.18 1012.07 1011.97 1011.87 1011.75 1011.63 1011.52 1011.44 1011.40 1011.42 1011.48 1011.56 1011.63 1011.68 1011.68 1011.62 1011.51 1011.38 1011.26 1011.17 1011.14 1011.18 1011.30 1011.49 1011.74 1012.02 1012.32 1012.62 1012.93 1013.25 1013.58 1013.91 1014.25 1014.60 1014.94 1015.27 1015.57 1015.86 1016.14 1016.40
1012.92 1012.57 1012.31 1012.11 1011.96 1011.81 1011.65 1011.49 1011.32 1011.16 1011.05 1011.00 1011.02 1011.10 1011.23 1011.36 1011.48 1011.54 1011.54 1011.49 1011.39 1011.27 1011.17 1011.10 1011.10 1011.16 1011.30 1011.49 1011.73 1012.01 1012.31 1012.63 1012.96 1013.31 1013.66 1014.01 1014.36 1014.69 1015.00 1015.30 1015.58 1015.85 1016.12
1013.04 1012.67 1012.38 1012.14 1011.94 1011.74 1011.53 1011.30 1011.08 1010.87 1010.72 1010.65 1010.66 1010.74 1010.89 1011.06 1011.21 1011.33 1011.38 1011.36 1011.29 1011.18 1011.06 1010.97 1010.92 1010.92 1011.00 1011.13 1011.33 1011.58 1011.86 1012.18 1012.53 1012.89 1013.25 1013.62 1013.97 1014.31 1014.62 1014.92 1015.20 1015.47 1015.75
1013.21 1012.85 1012.54 1012.28 1012.04 1011.80 1011.53 1011.25 1010.97 1010.71 1010.52 1010.40 1010.38 1010.44 1010.58 1010.75 1010.92 1011.05 1011.12 1011.13 1011.07 1010.97 1010.84 1010.72 1010.62 1010.57 1010.59 1010.67 1010.82 1011.03 1011.29 1011.60 1011.94 1012.31 1012.69 1013.07 1013.44 1013.78 1014.11 1014.41 1014.71 1015.00 1015.30
1013.42 1013.08 1012.79 1012.52 1012.26 1011.98 1011.67 1011.34 1011.01 1010.70 1010.45 1010.28 1010.21 1010.23 1010.33 1010.47 1010.61 1010.74 1010.81 1010.82 1010.77 1010.66 1010.52 1010.38 1010.25 1010.16 1010.12 1010.15 1010.24 1010.40 1010.63 1010.92 1011.25 1011.62 1012.01 1012.40 1012.78 1013.15 1013.49 1013.82 1014.13 1014.45 1014.78
1013.63 1013.34 1013.08 1012.82 1012.56 1012.26 1011.92 1011.56 1011.19 1010.84 1010.53 1010.31 1010.17 1010.13 1010.16 1010.25 1010.35 1010.44 1010.49 1010.48 1010.42 1010.31 1010.16 1010.00 1009.85 1009.73 1009.65 1009.63 1009.68 1009.80 1009.98 1010.24 1010.55 1010.91 1011.29 1011.69 1012.08 1012.46 1012.82 1013.17 1013.51 1013.86 1014.22
1013.80 1013.57 1013.36 1013.13 1012.87 1012.58 1012.24 1011.86 1011.46 1011.08 1010.73 1010.45 1010.26 1010.14 1010.10 1010.12 1010.15 1010.19 1010.20 1010.17 1010.10 1009.98 1009.83 1009.67 1009.51 1009.37 1009.26 1009.21 1009.21 1009.29 1009.43 1009.65 1009.93 1010.26 1010.62 1011.01 1011.40 1011.78 1012.16 1012.52 1012.88 1013.26 1013.65
1013.92 1013.75 1013.58 1013.38 1013.15 1012.88 1012.54 1012.17 1011.77 1011.37 1011.00 1010.68 1010.44 1010.26 1010.15 1010.08 1010.05 1010.03 1009.99 1009.93 1009.85 1009.73 1009.59 1009.44 1009.28 1009.14 1009.02 1008.95 1008.92 1008.95 1009.05 1009.22 1009.46 1009.75 1010.08 1010.44 1010.81 1011.18 1011.55 1011.92 1012.30 1012.69 1013.11
1013.97 1013.85 1013.72 1013.57 1013.37 1013.12 1012.81 1012.46 1012.07 1011.68 1011.30 1010.96 1010.67 1010.44 1010.27 1010.14 1010.04 1009.96 1009.88 1009.80 1009.70 1009.58 1009.46 1009.32 1009.19 1009.06 1008.94 1008.86 1008.81 1008.81 1008.86 1008.98 1009.16 1009.40 1009.68 1010.00 1010.34 1010.68 1011.04 1011.40 1011.77 1012.16 1012.58
1013.98 1013.90 1013.80 1013.68 1013.51 1013.29 1013.01 1012.68 1012.32 1011.95 1011.58 1011.24 1010.94 1010.67 1010.45 1010.27 1010.12 1009.98 1009.86 1009.75 1009.64 1009.53 1009.42 1009.31 1009.20 1009.09 1009.00 1008.91 1008.85 1008.82 1008.83 1008.90 1009.02 1009.20 1009.42 1009.68 1009.97 1010.28 1010.59 1010.93 1011.28 1011.65 1012.06
1013.96 1013.90 1013.83 1013.72 1013.58 1013.38 1013.13 1012.84 1012.51 1012.17 1011.83 1011.50 1011.19 1010.91 1010.66 1010.44 1010.24 1010.06 1009.90 1009.76 1009.64 1009.53 1009.44 1009.36 1009.27 1009.19 1009.11 1009.04 1008.97 1008.91 1008.89 1008.90 1008.96 1009.07 1009.23 1009.43 1009.65 1009.91 1010.19 1010.48 1010.80 1011.14 1011.52
1013.94 1013.89 1013.82 1013.72 1013.59 1013.41 1013.18 1012.92 1012.63 1012.32 1012.01 1011.70 1011.41 1011.13 1010.86 1010.61 1010.38 1010.16 1009.97 1009.80 1009.67 1009.55 1009.47 1009.40 1009.34 1009.28 1009.22 1009.15 1009.08 1009.00 1008.94 1008.90 1008.90 1008.94 1009.03 1009.16 1009.33 1009.53 1009.76 1010.01 1010.29 1010.60 1010.94
1013.91 1013.85 1013.78 1013.68 1013.54 1013.37 1013.16 1012.92 1012.66 1012.39 1012.11 1011.84 1011.56 1011.29 1011.03 1010.76 1010.50 1010.25 1010.03 1009.83 1009.67 1009.55 1009.46 1009.40 1009.35 1009.31 1009.25 1009.18 1009.10 1009.00 1008.90 1008.81 1008.75 1008.72 1008.74 1008.81 1008.93 1009.08 1009.27 1009.49 1009.74 1010.01 1010.32
1013.86 1013.79 1013.70 1013.58 1013.44 1013.26 1013.05 1012.83 1012.59 1012.35 1012.12 1011.88 1011.64 1011.39 1011.13 1010.85 1010.58 1010.31 1010.05 1009.82 1009.63 1009.48 1009.37 1009.30 1009.26 1009.21 1009.16 1009.08 1008.98 1008.85 1008.71 1008.57 1008.44 1008.36 1008.32 1008.33 1008.40 1008.52 1008.69 1008.89 1009.12 1009.37 1009.66
1013.75 1013.67 1013.55 1013.41 1013.24 1013.04 1012.84 1012.62 1012.40 1012.20 1012.00 1011.80 1011.60 1011.38 1011.14 1010.87 1010.59 1010.30 1010.01 1009.75 1009.52 1009.34 1009.21 1009.12 1009.06 1009.00 1008.93 1008.83 1008.70 1008.54 1008.35 1008.15 1007.97 1007.82 1007.73 1007.70 1007.73 1007.83 1007.99 1008.20 1008.43 1008.70 1008.99
1013.55 1013.44 1013.30 1013.13 1012.93 1012.71 1012.49 1012.28 1012.08 1011.90 1011.74 1011.59 1011.44 1011.26 1011.05 1010.80 1010.52 1010.22 1009.91 1009.62 1009.36 1009.14 1008.97 1008.85 1008.76 1008.67 1008.57 1008.45 1008.28 1008.08 1007.84 1007.59 1007.34 1007.14 1006.99 1006.92 1006.93 1007.03 1007.20 1007.43 1007.70 1008.00 1008.32
1013.22 1013.09 1012.92 1012.71 1012.48 1012.24 1012.01 1011.80 1011.62 1011.47 1011.35 1011.25 1011.15 1011.02 1010.85 1010.63 1010.36 1010.06 1009.74 1009.42 1009.12 1008.87 1008.66 1008.50 1008.37 1008.25 1008.12 1007.96 1007.76 1007.50 1007.21 1006.90 1006.60 1006.34 1006.15 1006.05 1006.04 1006.14 1006.33 1006.60 1006.93 1007.29 1007.68
Thickness
5715 5718 5721 5724 5727 5729 5732 5735 5737 5738 5740 5742 5744 5746 5748 5749 5751 5753 5755 5756 5757 5757 5757 5757 5756 5756 5755 5754 5753 5753 5752 5752 5752 5752 5752 5751 5751 5751 5751 5750 5750 5750 5749
5708 5710 5713 5716 5720 5723 5726 5729 5731 5733 5735 5737 5740 5742 5744 5746 5749 5750 5752 5754 5755 5755 5756 5756 5755 5755 5754 5753 5753 5752 5751 5751 5750 5750 5750 5750 5750 5749 5749 5748 5748 5748 5748
5702 5703 5705 5708 5712 5716 5720 5723 5725 5727 5729 5732 5735 5737 5740 5742 5745 5747 5749 5751 5752 5753 5754 5754 5754 5753 5753 5753 5752 5751 5750 5750 5750 5749 5749 5748 5748 5748 5747 5747 5746 5746 5746
5696 5697 5699 5701 5705 5709 5712 5715 5718 5719 5722 5725 5728 5731 5735 5738 5740 5743 5745 5747 5749 5750 5751 5752 5753 5752 5752 5752 5751 5750 5750 5749 5748 5748 5748 5747 5746 5746 5745 5745 5744 5744 5743
5690 5691 5692 5695 5698 5701 5705 5708 5711 5713 5715 5718 5722 5726 5729 5732 5735 5738 5740 5742 5745 5746 5748 5750 5751 5751 5751 5751 5750 5749 5749 5748 5747 5747 5746 5746 5745 5744 5743 5743 5742 5742 5741
5684 5686 5687 5689 5692 5694 5697 5700 5703 5707 5709 5712 5717 5720 5724 5727 5731 5733 5736 5738 5740 5742 5744 5747 5748 5749 5749 5749 5749 5748 5748 5747 5746 5746 5745 5744 5743 5743 5742 5741 5740 5740 5739
5678 5680 5681 5683 5685 5686 5689 5692 5696 5698 5702 5706 5707 5710 5715 5721 5725 5728 5731 5733 5735 5738 5741 5743 5745 5746 5746 5746 5747 5747 5746 5746 5745 5744 5744 5743 5742 5741 5740 5739 5739 5738 5737
5673 5675 5675 5677 5679 5680 5682 5685 5688 5690 5694 5699 5699 5699 5700 5707 5716 5723 5725 5728 5731 5733 5736 5739 5741 5743 5743 5744 5744 5745 5745 5744 5744 5743 5742 5741 5740 5739 5738 5738 5737 5736 5735
5669 5670 5671 5672 5674 5675 5676 5679 5682 5684 5685 5690 5695 5694 5693 5694 5703 5712 5718 5723 5726 5729 5731 5734 5737 5739 5739 5741 5741 5742 5742 5742 5742 5741 5741 5740 5738 5737 5736 5735 5734 5734 5733
5665 5666 5667 5669 5670 5671 5673 5675 5678 5680 5681 5682 5687 5691 5694 5696 5695 5699 5707 5714 5720 5723 5725 5729 5732 5734 5736 5737 5738 5739 5739 5739 5739 5739 5738 5738 5737 5736 5734 5733 5732 5732 5731
5662 5662 5663 5665 5666 5667 5669 5671 5673 5675 5677 5678 5680 5683 5686 5690 5693 5693 5695 5702 5709 5715 5720 5723 5726 5729 5732 5733 5734 5735 5736 5736 5736 5736 5736 5736 5735 5734 5733 5731 5730 5729 5728
5658 5659 5660 5661 5662 5664 5666 5667 5669 5671 5672 5674 5677 5679 5681 5683 5685 5688 5690 5694 5698 5706 5712 5717 5721 5724 5727 5729 5731 5732 5733 5732 5733 5733 5733 5733 5732 5732 5730 5729 5728 5727 5726
5654 5656 5657 5658 5659 5661 5663 5664 5665 5667 5669 5670 5672 5675 5677 5680 5683 5685 5686 5688 5691 5697 5704 5710 5715 5719 5722 5724 5726 5728 5728 5729 5729 5730 5729 5729 5729 5729 5728 5727 5726 5725 5724
5653 5654 5655 5656 5657 5659 5660 5662 5662 5664 5666 5667 5669 5671 5673 5676 5680 5682 5683 5683 5683 5688 5694 5701 5708 5713 5716 5718 5720 5722 5723 5725 5725 5726 5726 5725 5725 5725 5725 5724 5723 5722 5721
5655 5654 5654 5654 5655 5656 5658 5659 5659 5660 5662 5663 5665 5667 5669 5672 5675 5678 5680 5682 5681 5680 5684 5693 5699 5706 5710 5712 5715 5716 5718 5720 5721 5721 5721 5721 5721 5721 5721 5720 5719 5718 5717
5655 5654 5653 5653 5654 5655 5656 5656 5657 5657 5658 5659 5661 5663 5665 5667 5670 5673 5675 5677 5680 5680 5680 5688 5694 5700 5704 5707 5709 5711 5712 5714 5715 5716 5716 5716 5716 5716 5716 5715 5715 5714 5713
5655 5654 5653 5652 5652 5653 5653 5653 5654 5654 5655 5656 5658 5659 5661 5663 5665 5667 5670 5672 5674 5677 5678 5683 5688 5693 5697 5700 5702 5704 5706 5707 5709 5710 5710 5710 5710 5711 5711 5711 5710 5709 5708
5656 5654 5653 5652 5651 5651 5651 5651 5651 5652 5652 5652 5654 5655 5657 5659 5660 5662 5664 5667 5670 5673 5674 5676 5681 5685 5689 5693 5696 5697 5699 5701 5702 5703 5704 5705 5705 5705 5706 5706 5705 5704 5703
5657 5655 5653 5652 5651 5650 5650 5650 5650 5650 5650 5651 5651 5652 5653 5654 5655 5657 5660 5662 5665 5669 5671 5672 5675 5679 5683 5686 5688 5689 5692 5693 5695 5697 5698 5699 5700 5700 5700 5700 5699 5699 5698
5658 5656 5654 5652 5651 5650 5650 5649 5649 5648 5648 5649 5649 5650 5651 5651 5652 5654 5656 5658 5661 5663 5665 5667 5669 5672 5675 5679 5681 5681 5683 5685 5688 5690 5691 5693 5694 5694 5694 5694 5694 5693 5692
5659 5656 5654 5653 5652 5651 5650 5649 5649 5648 5647 5647 5648 5649 5649 5651 5652 5654 5655 5655 5657 5658 5660 5662 5664 5666 5669 5671 5674 5676 5677 5679 5680 5683 5684 5686 5687 5687 5687 5687 5687 5687 5686
5659 5657 5655 5653 5652 5652 5652 5651 5649 5647 5646 5646 5646 5647 5648 5649 5651 5653 5654 5655 5656 5656 5656 5657 5659 5662 5664 5667 5669 5671 5672 5672 5673 5677 5678 5678 5680 5680 5681 5681 5682 5681 5680
5659 5657 5655 5653 5652 5652 5653 5652 5651 5647 5645 5644 5644 5644 5646 5648 5648 5649 5650 5652 5654 5656 5656 5656 5657 5659 5661 5665 5665 5666 5668 5668 5670 5672 5670 5670 5672 5673 5675 5675 5675 5675 5674
5659 5657 5655 5654 5652 5652 5653 5652 5650 5647 5645 5644 5644 5643 5643 5644 5646 5647 5647 5648 5649 5651 5653 5655 5657 5658 5660 5662 5664 5665 5665 5663 5663 5664 5665 5663 5664 5666 5667 5668 5669 5668 5668
5660 5658 5656 5654 5652 5652 5653 5652 5650 5646 5644 5643 5643 5643 5643 5643 5645 5646 5645 5644 5645 5647 5650 5652 5655 5656 5658 5659 5660 5658 5657 5657 5656 5657 5658 5658 5658 5658 5659 5661 5662 5662 5662
5661 5659 5657 5655 5653 5652 5653 5652 5650 5646 5643 5642 5642 5642 5643 5642 5643 5643 5642 5642 5642 5643 5646 5648 5649 5651 5653 5654 5655 5656 5656 5654 5652 5651 5653 5652 5652 5651 5650 5653 5654 5654 5654